Location: El Dieciséis
(32.4721°N, 116.6080°W)
Time: 08:29:25
(UTC+00:00)

Cosmos-2242 - Pass Details

Date: 13 June 2024
Orbit: 578 x 604 km, 82.5° (Epoch: 18 July)

Event Time Altitude Azimuth Distance (km) Brightness Sun altitude
Rises 12:00:06 0° 352° (N) 2,859 6.9 -7.8°
Reaches altitude 10° 12:02:19 10° 352° (N) 1,950 6.0 -7.4°
Maximum altitude 12:06:38 82° 266° (W) 609 3.0 -6.6°
Drops below altitude 10° 12:10:53 10° 178° (S) 1,922 5.3 -5.9°
Sets 12:13:04 0° 177° (S) 2,815 6.1 -5.5°
